When you browse on this site, cookies collect data to enhance your experience and personalize the content and advertising you see.
Visit our Privacy Policy to learn more. By continuing to use the site, you agree to this use of cookies and data.
  • In Schweiz
  • Länderverzeichnis
  • Für 7 Tage
  • Wassertemperatur
  • Satellitenkarten
  • Wetterkarte
  • Widgets
  • user-avatar
    Anmelden

    Stündliche Wetter Hrasdan

    Heute, 25 April, Donnerstag

    Zeit Temperatur Niederschläge Wind Luftdruck Luftfeuchtigkeit
    00:00 +2°C° 0.4 mm 1 m/S 615 mmHg 89%
    01:00 +2°C° 0.4 mm 1 m/S 615 mmHg 90%
    02:00 +2°C° 0.4 mm 1 m/S 615 mmHg 91%
    03:00 +1°C° 0 mm 1 m/S 615 mmHg 92%
    04:00 +1°C° 0.2 mm 1 m/S 615 mmHg 92%
    05:00 +1°C° 0.2 mm 1 m/S 615 mmHg 91%
    06:00 0°C° 0.2 mm 1 m/S 615 mmHg 91%
    07:00 +1°C° 0 mm 1 m/S 615 mmHg 86%
    08:00 +3°C° 0 mm 1 m/S 615 mmHg 81%
    09:00 +4°C° 0 mm 1 m/S 616 mmHg 76%
    10:00 +4°C° 0 mm 1 m/S 616 mmHg 73%
    11:00 +5°C° 0 mm 1 m/S 616 mmHg 71%
    12:00 +6°C° 0 mm 1 m/S 616 mmHg 68%
    13:00 +5°C° 0.1 mm 2 m/S 615 mmHg 68%
    14:00 +6°C° 0.1 mm 2 m/S 615 mmHg 67%
    15:00 +6°C° 0.1 mm 2 m/S 615 mmHg 67%
    16:00 +5°C° 0.1 mm 2 m/S 615 mmHg 69%
    17:00 +5°C° 0.1 mm 2 m/S 615 mmHg 71%
    18:00 +4°C° 0.1 mm 2 m/S 615 mmHg 74%
    19:00 +3°C° 0 mm 2 m/S 614 mmHg 76%
    20:00 +1°C° 0 mm 2 m/S 614 mmHg 78%
    21:00 -1°C° 0 mm 2 m/S 614 mmHg 81%
    22:00 -1°C° 0 mm 2 m/S 614 mmHg 81%
    23:00 -2°C° 0 mm 2 m/S 614 mmHg 81%

    Morgen, 26 April, Freitag

    Zeit Temperatur Niederschläge Wind Luftdruck Luftfeuchtigkeit
    00:00 -2°C° 0 mm 2 m/S 614 mmHg 81%
    01:00 0°C° 0 mm 1 m/S 614 mmHg 81%
    02:00 0°C° 0 mm 1 m/S 614 mmHg 81%
    03:00 0°C° 0 mm 1 m/S 614 mmHg 81%
    04:00 0°C° 0 mm 1 m/S 614 mmHg 80%
    05:00 0°C° 0 mm 1 m/S 615 mmHg 78%
    06:00 0°C° 0 mm 1 m/S 615 mmHg 77%
    07:00 +2°C° 0 mm 1 m/S 615 mmHg 71%
    08:00 +4°C° 0 mm 1 m/S 615 mmHg 65%
    09:00 +6°C° 0 mm 1 m/S 615 mmHg 59%
    10:00 +7°C° 0 mm 1 m/S 615 mmHg 57%
    11:00 +7°C° 0 mm 2 m/S 615 mmHg 54%
    12:00 +7°C° 0 mm 2 m/S 615 mmHg 51%
    13:00 +8°C° 0 mm 2 m/S 615 mmHg 51%
    14:00 +8°C° 0 mm 2 m/S 615 mmHg 52%
    15:00 +8°C° 0 mm 2 m/S 615 mmHg 52%
    16:00 +8°C° 0 mm 1 m/S 614 mmHg 57%
    17:00 +8°C° 0 mm 1 m/S 614 mmHg 62%
    18:00 +7°C° 0 mm 1 m/S 614 mmHg 67%
    19:00 +6°C° 0 mm 1 m/S 613 mmHg 71%
    20:00 +4°C° 0 mm 1 m/S 613 mmHg 75%
    21:00 +3°C° 0 mm 1 m/S 613 mmHg 79%
    22:00 +3°C° 0 mm 1 m/S 613 mmHg 81%
    23:00 +2°C° 0 mm 1 m/S 613 mmHg 82%

    übermorgen, 27 April, Samstag

    Zeit Temperatur Niederschläge Wind Luftdruck Luftfeuchtigkeit
    00:00 +2°C° 0 mm 1 m/S 613 mmHg 84%
    01:00 +2°C° 0 mm 1 m/S 613 mmHg 84%
    02:00 +2°C° 0 mm 1 m/S 613 mmHg 85%
    03:00 +1°C° 0 mm 1 m/S 613 mmHg 85%
    04:00 +2°C° 0 mm 1 m/S 613 mmHg 83%
    05:00 +2°C° 0 mm 1 m/S 613 mmHg 82%
    06:00 +2°C° 0 mm 1 m/S 613 mmHg 80%
    07:00 +4°C° 0 mm 1 m/S 614 mmHg 72%
    08:00 +6°C° 0 mm 1 m/S 614 mmHg 63%
    09:00 +8°C° 0 mm 1 m/S 615 mmHg 55%
    10:00 +8°C° 0 mm 2 m/S 615 mmHg 52%
    11:00 +9°C° 0 mm 2 m/S 615 mmHg 50%
    12:00 +10°C° 0 mm 2 m/S 615 mmHg 48%
    13:00 +10°C° 0.1 mm 2 m/S 614 mmHg 47%
    14:00 +10°C° 0.1 mm 2 m/S 614 mmHg 47%
    15:00 +10°C° 0.1 mm 2 m/S 614 mmHg 46%
    16:00 +9°C° 0.1 mm 2 m/S 613 mmHg 51%
    17:00 +9°C° 0.1 mm 1 m/S 613 mmHg 55%
    18:00 +8°C° 0.1 mm 1 m/S 612 mmHg 59%
    19:00 +7°C° 0 mm 1 m/S 612 mmHg 61%
    20:00 +5°C° 0 mm 1 m/S 612 mmHg 62%
    21:00 +4°C° 0 mm 1 m/S 612 mmHg 63%
    22:00 +4°C° 0 mm 1 m/S 612 mmHg 62%
    23:00 +3°C° 0 mm 1 m/S 612 mmHg 60%

    28 April, Sonntag

    Zeit Temperatur Niederschläge Wind Luftdruck Luftfeuchtigkeit
    00:00 +3°C° 0 mm 1 m/S 612 mmHg 59%
    01:00 +3°C° 0 mm 1 m/S 611 mmHg 58%
    02:00 +3°C° 0 mm 1 m/S 611 mmHg 56%
    03:00 +3°C° 0 mm 1 m/S 611 mmHg 55%
    04:00 +3°C° 0 mm 1 m/S 611 mmHg 57%
    05:00 +2°C° 0 mm 2 m/S 611 mmHg 58%
    06:00 +2°C° 0 mm 2 m/S 611 mmHg 59%
    07:00 +5°C° 0 mm 2 m/S 612 mmHg 56%
    08:00 +7°C° 0 mm 3 m/S 612 mmHg 53%
    09:00 +9°C° 0 mm 3 m/S 613 mmHg 50%
    10:00 +10°C° 0 mm 3 m/S 613 mmHg 50%
    11:00 +11°C° 0 mm 3 m/S 613 mmHg 49%
    12:00 +11°C° 0 mm 4 m/S 613 mmHg 49%
    13:00 +12°C° 0.1 mm 3 m/S 612 mmHg 49%
    14:00 +12°C° 0.1 mm 3 m/S 612 mmHg 49%
    15:00 +12°C° 0.1 mm 3 m/S 612 mmHg 49%
    16:00 +11°C° 0.2 mm 3 m/S 611 mmHg 54%
    17:00 +12°C° 0.2 mm 2 m/S 611 mmHg 58%
    18:00 +10°C° 0.2 mm 2 m/S 611 mmHg 62%
    19:00 +9°C° 0.1 mm 1 m/S 611 mmHg 64%
    20:00 +8°C° 0.1 mm 1 m/S 611 mmHg 66%
    21:00 +7°C° 0.1 mm 1 m/S 611 mmHg 68%
    22:00 +6°C° 0 mm 1 m/S 610 mmHg 69%
    23:00 +5°C° 0 mm 2 m/S 610 mmHg 69%

    29 April, Montag

    Zeit Temperatur Niederschläge Wind Luftdruck Luftfeuchtigkeit
    00:00 +5°C° 0 mm 2 m/S 610 mmHg 69%
    01:00 +5°C° 0 mm 2 m/S 610 mmHg 70%
    02:00 +4°C° 0 mm 2 m/S 610 mmHg 71%
    03:00 +4°C° 0 mm 2 m/S 610 mmHg 72%
    04:00 +5°C° 0 mm 2 m/S 610 mmHg 74%
    05:00 +5°C° 0 mm 2 m/S 610 mmHg 75%
    06:00 +5°C° 0 mm 2 m/S 611 mmHg 77%
    07:00 +7°C° 0 mm 3 m/S 611 mmHg 72%
    08:00 +9°C° 0 mm 3 m/S 612 mmHg 68%
    09:00 +11°C° 0 mm 3 m/S 613 mmHg 63%
    10:00 +11°C° 0.2 mm 3 m/S 612 mmHg 61%
    11:00 +12°C° 0.2 mm 4 m/S 612 mmHg 60%
    12:00 +12°C° 0.2 mm 4 m/S 612 mmHg 58%
    13:00 +12°C° 0.5 mm 4 m/S 612 mmHg 60%
    14:00 +12°C° 0.5 mm 3 m/S 611 mmHg 62%
    15:00 +11°C° 0.5 mm 3 m/S 611 mmHg 65%
    16:00 +12°C° 0.6 mm 2 m/S 611 mmHg 69%
    17:00 +10°C° 0.6 mm 2 m/S 611 mmHg 73%
    18:00 +10°C° 0.6 mm 1 m/S 610 mmHg 77%
    19:00 +9°C° 1.2 mm 1 m/S 610 mmHg 80%
    20:00 +9°C° 1.2 mm 1 m/S 611 mmHg 82%
    21:00 +8°C° 1.2 mm 1 m/S 611 mmHg 84%
    22:00 +8°C° 0.8 mm 1 m/S 611 mmHg 84%
    23:00 +8°C° 0.8 mm 1 m/S 611 mmHg 84%

    30 April, Dienstag

    Zeit Temperatur Niederschläge Wind Luftdruck Luftfeuchtigkeit
    00:00 +6°C° 0.8 mm 0 m/S 611 mmHg 85%
    01:00 +7°C° 0.1 mm 1 m/S 611 mmHg 84%
    02:00 +6°C° 0.1 mm 1 m/S 611 mmHg 84%
    03:00 +6°C° 0.1 mm 1 m/S 611 mmHg 84%
    04:00 +6°C° 0 mm 1 m/S 611 mmHg 84%
    05:00 +6°C° 0 mm 1 m/S 611 mmHg 84%
    06:00 +6°C° 0 mm 1 m/S 611 mmHg 84%
    07:00 +7°C° 0 mm 2 m/S 612 mmHg 77%
    08:00 +9°C° 0 mm 2 m/S 613 mmHg 69%
    09:00 +11°C° 0 mm 3 m/S 613 mmHg 62%
    10:00 +12°C° 0 mm 3 m/S 613 mmHg 57%
    11:00 +13°C° 0 mm 3 m/S 613 mmHg 53%
    12:00 +14°C° 0 mm 3 m/S 613 mmHg 48%
    13:00 +14°C° 0 mm 3 m/S 613 mmHg 46%
    14:00 +16°C° 0 mm 3 m/S 613 mmHg 45%
    15:00 +16°C° 0 mm 3 m/S 613 mmHg 43%
    16:00 +15°C° 0.1 mm 2 m/S 612 mmHg 47%
    17:00 +14°C° 0.1 mm 2 m/S 612 mmHg 51%
    18:00 +14°C° 0.1 mm 1 m/S 612 mmHg 55%
    19:00 +12°C° 0.1 mm 1 m/S 612 mmHg 57%
    20:00 +11°C° 0.1 mm 1 m/S 612 mmHg 58%
    21:00 +9°C° 0.1 mm 1 m/S 611 mmHg 60%
    22:00 +9°C° 0.1 mm 1 m/S 611 mmHg 61%
    23:00 +8°C° 0.1 mm 1 m/S 611 mmHg 61%
    Mehr zeigen